Reflectivity
-3 7 8 1 -20 -20 -20 -20 -20 -20 -20 -20 -20 -20 -20 -20 -20 -20 -20 -20 -20 -20 -20 -20 -20 -20 -20 -20 -20 -20 -20 -20 -20 -20 -20 -20 -20 -20 -20 -20 -20 -20 -20 -20
5 10 10 -20 -20 -20 -20 -20 -20 -20 -20 -20 -20 -20 -20 -20 -20 -20 -20 -20 -20 -20 -20 -20 -20 -20 -20 -20 -20 -20 -20 -20 -20 -20 -20 -20 -20 -20 -20 -20 -20 -20 -8 -20
6 7 7 -17 -20 -20 -20 -20 8 -20 -20 -20 -20 -20 -20 -20 -20 -20 -20 -20 -20 -20 -20 -20 -20 -20 -20 -20 -20 -20 -20 -20 -20 -20 -20 -20 -20 -20 -20 -20 -20 -20 -20 -20
8 6 2 -15 -20 -20 -20 -20 -20 -20 -20 -20 -20 -20 -20 -20 -20 -20 -20 -20 -20 -20 -20 -20 -20 -20 -20 -20 -20 -20 -20 -20 -20 -20 -20 -20 -20 -20 -20 -20 -20 -19 -20 -20
8 1 -5 -20 -20 -20 -20 -20 -20 -20 -20 -20 -20 -20 -20 -20 -20 -20 -20 -20 -20 -20 -20 -20 -20 -20 -20 -20 -20 -20 -20 -20 -20 -20 -20 -20 -20 -20 -20 -20 -20 -20 -20 -20
9 4 2 -20 -20 -20 -20 -20 -20 -20 -20 -20 -20 -20 -20 -20 -20 -20 -20 -20 -20 -20 -20 -20 -20 -20 -20 -20 -20 -20 -20 -20 -20 -20 -20 -20 -20 -20 -20 -20 -20 -20 -20 -20
9 8 -14 -20 -20 -20 -20 -20 -20 6 -19 -20 -20 -20 -20 -20 -20 -20 -20 -20 -20 -20 -20 -20 -20 -20 -20 -20 -20 -20 -20 -20 -10 -20 -18 -12 -20 -20 -20 -20 -20 -20 -20 -20
3 10 -20 -20 -20 -20 -20 -20 -20 -18 24 -20 -20 -20 -20 -20 -20 -20 -20 -20 -20 -20 -20 0 -4 -20 -20 -20 -20 -20 -20 -20 -18 -20 -20 -20 -20 -20 -20 -20 -20 -20 -20 -20
4 -1 -20 -19 10 -19 -20 -20 -20 -20 14 3 -20 -20 -20 -20 -20 -20 -20 -20 -20 -20 -20 9 21 -20 -20 -20 -20 -20 -20 -20 -20 -19 6 1 -20 -20 -20 -20 -18 -20 -20 -20
3 -20 -20 -19 8 -20 -20 -20 -20 -20 -20 -20 -20 -20 -20 -20 -20 -20 -20 -20 -20 -20 -13 16 3 -20 -20 -20 -20 -20 -20 -20 -20 -15 -2 -12 -20 -20 -20 -8 -18 -20 -9 2
-20 -20 -20 -20 -20 -20 -20 -20 -20 -20 -10 -20 -20 -20 -20 -20 -20 -20 -20 -20 -20 -20 15 14 -20 -7 -20 -20 -20 -20 -16 -20 -20 -10 -20 -0 -20 -19 4 14 -19 -3 10 -7
-20 -20 -20 -20 -20 -20 -20 -20 -20 -20 -20 -20 -20 -20 -20 -20 -20 -20 -20 -20 -20 -20 -3 0 -19 14 3 6 -20 -20 -20 -20 -18 -17 -20 -20 -20 -20 -4 9 -16 -19 14 -4
-20 -20 -20 -20 -20 -20 -20 -20 -20 -20 -0 -20 -20 -20 -20 -20 -20 -20 -20 -20 -20 -20 -20 -20 -20 16 -20 -11 -20 -20 -20 -20 -20 -8 -20 -18 8 -20 -20 -16 -15 3 -3 -20
-20 -20 -20 -20 -20 -20 -20 -20 -20 -20 -10 24 -20 -20 -20 -20 -20 -20 -20 -20 -20 -20 -20 -6 13 19 -20 -14 -5 -9 -10 -6 -17 -5 -20 -6 2 -17 -20 -19 0 10 -9 -20
-20 -20 -20 -20 -20 -20 -20 -20 -20 -20 -20 17 -20 -20 -20 -20 -20 -20 -20 -20 -20 -20 11 22 16 -20 -17 -20 -20 -20 -20 -12 -3 3 6 7 -7 -15 7 13 -7 -18 -20 -20
-20 -20 -20 -20 -20 -20 -20 -20 -20 -20 -20 -14 21 -20 -20 -20 -20 -20 -20 -20 -20 -20 -14 4 -12 -20 3 1 -6 -20 -20 -20 9 -20 15 -10 -14 24 -16 -20 -20 -20 -20 -20
-13 -18 10 -15 -19 -20 -1 -20 -20 -20 -20 12 21 -18 -20 -20 -20 -20 -20 -16 4 12 -20 1 -20 -20 -2 5 -0 -20 -11 -7 -11 -18 -19 12 20 -5 -20 -20 -20 -20 -20 -20
-2 3 3 9 9 -19 -20 -20 -20 -20 -20 -19 18 -5 -20 -20 -20 -11 -20 -20 -20 -20 -20 -6 -20 -20 3 19 -2 -20 -20 -20 -19 -6 -7 -19 -20 -20 -20 -20 -20 -20 -20 -20
6 13 19 14 12 13 -5 -4 -20 -20 -20 21 17 8 10 -20 -20 -20 -20 -20 14 -20 6 -11 -19 -9 -5 -20 -20 -20 -14 -14 -19 -20 -20 -20 -20 -20 -20 -20 -20 -20 -20 -20
22 16 17 19 14 23 -1 0 12 -18 -19 -10 7 -4 -4 -5 -11 -14 7 -19 7 7 -18 -9 10 12 -20 -20 -20 -18 -20 -20 -20 -20 -20 -20 -20 -20 -20 -20 -20 -20 -20 -20
37 30 26 20 25 12 7 17 21 11 28 16 6 13 6 -14 -9 2 -10 22 14 -5 -8 -4 1 -14 -20 -20 -20 -20 -20 -20 -20 -20 -20 -20 -20 -20 -20 -20 -20 -20 -20 -20
36 31 20 28 30 30 30 32 31 15 14 2 9 16 5 9 17 29 28 19 -2 -6 -20 0 -5 -20 -20 -20 -20 -20 -20 -20 -20 -20 -20 -20 -20 -20 -20 -20 -20 -20 -20 -20
35 32 32 34 30 26 19 13 11 11 4 -5 -6 13 20 30 23 8 -0 -6 2 -20 -2 -19 -19 -20 -20 -20 -20 -20 -20 -20 -20 -20 -20 -20 -20 -20 -20 -20 -20 -20 -20 -20
37 36 29 32 25 31 25 14 -8 0 20 8 -1 -4 -12 4 3 9 -0 -12 -19 0 -1 -20 -15 -20 -20 -20 -20 -20 -20 -20 -20 -20 -20 -20 -20 -20 -20 -20 -20 -20 -20 -20
26 25 23 21 20 16 25 26 16 7 15 5 -3 -14 -13 -1 8 -4 -10 -9 -6 -9 -20 -20 -20 -20 -20 -20 -20 -20 -20 -20 -20 -20 -20 -20 -20 -20 -20 -20 -20 -20 -20 -20
12 15 16 16 16 14 18 13 9 10 6 4 -5 -18 -20 -20 -18 -20 -17 -20 -20 -20 -20 -20 -20 -20 -20 -20 -20 -20 -20 -20 -20 -20 -20 -20 -20 -20 -20 -20 -20 -20 -20 -20
-2 4 9 9 10 8 9 10 11 9 8 6 4 -2 2 -9 -20 -20 -20 -20 -20 -20 -20 -20 -20 -20 -20 -20 -20 -20 -20 -20 -20 -20 -20 -20 -20 -20 -20 -20 -20 -20 -20 -20
Wind_Speed
11 12 13 14 13 9 3 2 3 3 2 4 1 3 4 2 4 2 4 4 5 4 3 4 3 4 3 2 1 2 4 1 2 2 2 2 1 2 0 3 3 2 5 8
10 11 12 12 11 6 3 2 3 2 3 4 3 4 4 3 3 3 3 3 2 2 4 4 5 4 2 1 1 2 2 0 2 4 6 4 4 3 1 2 0 10 5 4
9 10 12 13 10 5 0 2 3 3 2 2 8 9 6 6 4 4 5 5 5 7 4 3 6 6 3 1 2 3 2 2 4 5 7 4 8 9 7 10 5 6 14 16
8 10 11 12 9 4 2 2 3 3 4 4 8 4 6 11 5 3 1 4 3 5 4 4 5 4 5 3 3 2 3 4 3 8 11 14 12 15 13 17 17 12 17 17
7 9 11 11 9 6 2 2 3 2 3 5 9 1 6 9 6 2 4 7 6 4 5 2 6 5 3 2 4 2 1 2 3 4 7 10 13 16 15 15 16 17 18 19
6 8 11 11 10 5 2 2 2 0 1 4 4 3 7 8 8 4 3 13 10 8 8 6 6 5 5 2 2 4 2 3 1 4 8 14 6 4 2 4 6 8 12 13
4 8 11 11 10 6 2 2 2 4 3 2 3 7 5 11 3 8 7 4 6 4 9 9 6 7 6 1 3 2 4 3 1 3 4 4 4 7 11 14 14 10 12 11
3 7 9 10 10 6 3 2 1 4 3 2 5 8 10 10 7 8 7 5 4 7 2 2 4 1 2 3 6 2 3 4 3 2 3 14 13 3 2 3 14 10 6 5
3 6 8 10 10 5 5 3 2 3 8 4 4 6 8 6 5 5 4 4 2 2 3 2 2 2 1 3 5 5 5 4 2 2 3 6 5 4 3 4 9 6 10 12
3 4 7 8 10 8 3 4 3 0 4 2 3 3 6 4 4 5 4 5 3 3 2 2 3 3 2 4 3 4 3 2 4 6 6 9 8 4 1 4 4 9 15 14
5 4 5 7 8 7 2 3 4 2 3 4 1 2 4 4 4 5 7 5 2 2 3 4 3 2 4 3 1 4 5 7 5 3 5 6 2 4 3 10 14 15 14 8
6 3 4 7 8 7 2 3 2 3 4 4 2 3 4 4 2 4 6 1 5 5 4 3 3 3 1 2 4 4 6 6 3 6 7 9 10 12 12 10 11 5 4 4
7 5 3 5 7 9 4 3 2 3 3 3 3 3 2 2 2 2 3 1 3 5 4 4 2 3 5 5 6 9 7 8 5 8 9 14 12 16 8 7 7 4 4 3
7 7 5 3 6 7 4 2 1 4 4 5 3 2 2 4 2 1 2 7 7 6 2 3 3 2 6 3 4 6 8 8 11 14 15 15 6 5 8 6 4 2 3 4
9 8 6 5 4 5 6 3 3 2 1 4 1 1 3 5 2 3 4 9 7 3 3 2 4 2 3 1 1 4 11 17 6 6 8 4 6 9 8 6 2 2 6 9
10 9 8 7 5 2 1 1 1 2 2 4 2 3 2 4 2 5 5 5 3 2 3 3 3 2 3 4 3 7 7 9 9 6 7 9 10 7 4 2 3 6 10 12
12 11 9 8 6 1 1 0 3 2 1 4 2 1 2 1 2 2 2 1 1 2 2 3 3 4 4 2 4 3 1 3 5 7 10 6 2 4 4 4 8 10 13 12
13 12 9 10 14 9 2 2 3 2 5 2 3 2 1 1 2 2 2 2 1 1 1 1 2 1 2 4 3 2 6 7 7 7 6 7 7 5 5 7 10 12 13 14
15 14 16 4 1 3 2 5 7 4 2 4 2 5 4 3 2 2 2 0 1 1 2 2 2 2 6 1 4 3 8 4 9 7 4 2 2 6 8 11 12 13 15 15
25 4 3 1 2 9 9 4 2 4 3 3 2 1 3 3 3 2 3 0 1 2 1 2 2 2 1 5 7 8 9 8 6 3 0 4 7 9 11 11 12 12 14 16
3 3 3 0 3 2 4 2 2 2 1 1 2 2 3 2 2 3 1 2 2 3 2 3 2 3 6 10 9 7 5 4 2 3 4 7 8 10 11 12 12 12 13 13
5 6 6 3 3 3 4 3 3 3 4 3 3 2 2 1 0 3 2 3 2 3 1 2 4 3 12 11 8 7 5 2 2 5 7 9 9 10 10 11 12 12 13 11
4 6 4 2 1 4 6 7 2 4 4 4 3 3 2 1 2 3 2 5 2 1 3 4 0 7 10 9 7 6 4 0 5 8 9 10 10 9 8 9 10 9 12 12
3 3 5 0 4 2 2 3 3 2 3 5 4 4 2 1 3 1 2 3 2 4 4 4 3 10 10 7 4 5 5 1 5 9 10 7 7 9 8 7 8 8 11 13
3 1 3 2 2 2 3 3 2 2 4 4 4 4 1 2 3 1 3 4 5 5 3 3 6 9 7 4 5 6 6 4 6 9 7 7 8 8 10 8 7 9 11 10
2 3 3 2 2 2 2 2 3 1 3 3 2 3 3 2 2 4 5 3 6 2 2 4 7 5 4 4 4 7 8 9 10 9 9 9 7 8 11 11 9 8 8 9
3 3 3 2 2 3 3 1 3 2 2 2 2 5 3 4 3 4 4 4 0 3 4 3 4 5 5 6 7 6 7 9 9 10 9 10 9 6 8 11 12 9 9 11
Wind_Direction
354 4 4 5 358 342 169 160 146 46 253 146 44 131 113 97 119 100 98 86 90 108 101 94 107 136 76 24 325 30 34 332 281 14 111 357 312 111 324 266 191 238 301 279
356 360 1 356 359 347 154 109 92 96 260 150 126 126 104 69 144 59 106 104 66 117 120 121 124 119 75 24 43 26 115 189 292 170 166 190 240 185 136 308 2 242 238 260
356 358 359 356 0 356 290 168 122 112 81 8 148 144 138 120 60 79 80 107 119 128 108 68 139 134 142 36 64 43 253 221 260 287 314 300 258 256 257 228 232 264 251 285
356 357 358 353 356 340 252 4 85 6 150 145 138 127 149 142 133 90 122 113 166 141 117 111 127 142 150 142 148 154 275 261 261 276 283 281 275 270 262 241 245 257 271 285
359 357 355 345 354 321 89 138 156 110 77 127 142 88 150 153 126 168 127 145 122 132 128 155 163 153 210 206 162 173 107 287 344 284 299 288 288 270 260 260 264 260 270 280
0 359 356 342 354 309 99 120 102 70 2 132 171 129 143 151 135 63 50 134 118 94 103 81 59 56 57 67 221 183 229 182 205 279 336 313 273 318 183 206 259 279 291 313
3 2 355 355 3 5 69 79 116 94 124 199 113 145 126 142 87 124 121 121 112 89 115 107 89 70 64 100 67 346 132 104 45 299 292 278 65 292 278 291 299 298 295 315
26 1 360 6 11 20 84 106 189 118 107 108 119 127 120 108 92 96 111 52 48 140 132 89 20 93 51 79 51 85 242 138 138 259 257 295 295 62 21 300 300 316 326 339
65 0 11 13 22 22 81 69 328 95 121 217 127 127 161 137 123 121 83 84 61 85 76 86 143 243 275 180 149 62 88 98 240 171 256 276 335 29 357 282 284 72 346 326
129 37 20 17 19 18 91 75 352 266 102 147 189 141 165 131 124 105 135 154 127 340 88 107 161 225 337 232 201 188 134 153 217 230 255 272 298 5 260 269 351 321 305 309
145 92 38 17 12 12 10 85 17 350 84 130 189 151 144 140 178 149 134 150 131 95 109 166 197 215 201 228 262 205 211 170 197 186 262 273 105 195 312 311 298 301 316 345
155 118 50 30 22 13 339 97 38 346 68 81 26 38 18 5 64 129 176 17 151 159 112 191 128 189 182 219 248 184 264 215 262 218 247 290 286 277 299 324 322 345 102 110
155 143 81 33 22 23 36 101 27 68 94 98 180 157 59 339 2 351 145 204 130 166 20 134 156 197 170 188 226 263 255 236 240 286 262 285 314 314 41 26 83 73 119 207
163 160 145 77 28 27 43 70 59 67 86 112 135 335 118 353 287 247 21 119 103 94 126 123 148 198 203 219 282 250 258 274 271 278 286 287 283 42 105 95 90 205 239 315
168 167 162 141 89 62 73 74 53 41 315 157 166 231 59 14 334 187 151 151 133 138 124 148 203 199 168 174 6 258 253 261 249 253 343 325 54 88 101 103 218 318 332 329
164 170 165 159 164 168 124 155 117 15 20 105 133 40 45 24 84 162 160 174 135 138 164 195 235 200 194 184 223 284 294 300 323 322 29 81 113 101 180 192 311 318 304 311
167 168 165 170 158 66 265 340 39 347 59 85 50 281 82 32 101 70 121 135 176 213 167 210 206 194 195 176 235 166 64 57 49 96 116 113 167 183 194 263 296 314 315 315
169 166 152 118 100 106 173 46 11 356 90 74 134 238 236 226 112 114 359 123 304 213 192 65 188 111 158 252 179 125 124 105 92 88 78 117 166 209 289 322 322 317 317 321
154 133 128 108 69 137 157 117 78 54 80 169 144 168 212 150 91 99 120 212 195 57 231 215 143 171 213 156 143 144 181 192 142 117 114 119 308 317 325 324 320 317 317 319
130 111 129 161 232 116 132 17 48 32 336 48 179 76 141 212 167 115 142 37 170 229 166 271 207 242 90 171 140 131 120 134 160 200 307 342 330 327 321 314 314 317 316 315
62 105 92 272 105 56 38 151 154 154 275 198 116 182 131 337 151 131 305 153 170 240 121 264 212 225 175 152 140 129 137 151 119 8 337 323 315 313 311 314 316 310 312 306
94 98 87 60 56 52 130 175 184 189 178 158 145 151 111 124 67 118 167 152 167 229 80 237 238 111 149 159 160 173 179 144 350 329 311 308 304 302 310 305 307 310 306 297
44 48 81 120 143 188 182 167 166 156 170 160 155 101 73 137 55 79 166 186 172 125 204 233 27 147 163 170 174 170 156 307 308 307 307 303 302 307 295 299 293 292 300 303
77 100 105 222 145 80 80 65 101 92 107 113 99 84 68 39 72 67 176 72 217 223 228 222 154 172 176 183 161 210 230 304 289 300 301 291 284 286 285 265 272 284 292 300
71 356 85 73 95 78 89 81 107 57 120 121 104 89 88 82 111 60 123 178 232 233 238 124 160 164 162 174 222 244 265 273 285 299 290 267 272 280 290 287 277 280 283 284
80 82 102 113 104 89 81 94 102 86 98 66 41 111 148 126 142 184 209 216 228 143 165 152 144 162 180 213 263 271 286 290 288 285 281 282 276 275 291 297 285 274 272 289
49 70 32 45 36 121 110 100 119 126 139 127 157 176 129 119 185 219 201 227 345 164 150 140 177 203 229 277 286 271 267 277 281 286 290 289 293 281 279 290 312 312 309 301